DW5310 Weather Reports


time (UTC)temp
F
wind
direction
speed
knots
gust
knots
rain 1hr
in
rain 24hr
in
rain mn
in
humidity
%
barometer
mb
20260509213504 74 305 2.6 7.0 0.00 0.00 0.00 47 1015.5
20260509213005 74 207 0.9 7.0 0.00 0.00 0.00 48 1016.5
20260509212503 74 205 2.6 7.0 0.00 0.00 0.00 49 1016.5
20260509212004 74 272 0.0 5.2 0.00 0.00 0.00 49 1016.5
20260509211504 74 35 0.0 5.2 0.00 0.00 0.00 50 1016.5
20260509210504 73 165 0.0 0.0 0.00 0.00 0.00 50 1016.5
20260509210004 73 26 0.0 0.0 0.00 0.00 0.00 50 1016.5
20260509205504 72 47 0.0 4.3 0.00 0.00 0.00 51 1016.5
20260509205003 72 311 0.0 5.2 0.00 0.00 0.00 51 1016.5
20260509204504 72 6 0.9 5.2 0.00 0.00 0.00 51 1016.5
20260509204004 72 298 0.0 5.2 0.00 0.00 0.00 52 1016.5
20260509203503 72 54 1.7 5.2 0.00 0.00 0.00 52 1016.5
20260509203004 72 279 0.0 5.2 0.00 0.00 0.00 53 1016.5
20260509202004 71 110 0.0 6.1 0.00 0.00 0.00 54 1016.5
20260509201504 71 258 0.0 6.1 0.00 0.00 0.00 55 1016.5
20260509201003 70 225 1.7 6.1 0.00 0.00 0.00 53 1016.5
20260509200504 70 12 0.0 6.1 0.00 0.00 0.00 55 1016.5
20260509200004 70 236 0.9 4.3 0.00 0.00 0.00 56 1016.5
20260509195503 70 40 0.9 4.3 0.00 0.00 0.00 56 1016.5
20260509195004 70 47 0.0 4.3 0.00 0.00 0.00 57 1016.5
20260509194504 69 351 0.0 4.3 0.00 0.00 0.00 57 1016.5
20260509194004 69 100 0.0 0.0 0.00 0.00 0.00 58 1016.5
20260509193504 69 305 0.0 5.2 0.00 0.00 0.00 58 1016.5
20260509193007 69 332 0.9 5.2 0.00 0.00 0.00 59 1017.5
20260509192006 68 332 0.0 6.1 0.00 0.00 0.00 60 1017.5
20260509191507 68 97 0.9 6.1 0.00 0.00 0.00 61 1017.5
20260509191006 67 71 1.7 6.1 0.00 0.00 0.00 61 1017.5
20260509190506 67 305 0.0 5.2 0.00 0.00 0.00 62 1017.5
20260509190007 67 35 0.0 2.6 0.00 0.00 0.00 63 1017.5
20260509185506 67 43 0.9 2.6 0.00 0.00 0.00 63 1017.5
20260509184506 66 42 0.0 1.7 0.00 0.00 0.00 66 1017.5
20260509184006 65 114 0.0 1.7 0.00 0.00 0.00 66 1017.5
20260509183507 65 7 0.0 5.2 0.00 0.00 0.00 67 1017.5
20260509182507 65 81 0.9 4.3 0.00 0.00 0.00 67 1017.5
20260509182007 65 54 0.9 4.3 0.00 0.00 0.00 68 1017.5
20260509181507 64 100 0.9 4.3 0.00 0.00 0.00 69 1017.5
20260509181007 64 328 0.0 0.0 0.00 0.00 0.00 69 1017.5
20260509175508 63 35 0.0 6.1 0.00 0.00 0.00 71 1017.5
20260509175008 63 48 1.7 6.1 0.00 0.00 0.00 72 1017.5
20260509174507 62 217 0.0 6.1 0.00 0.00 0.00 72 1017.5
20260509174007 62 100 0.0 6.1 0.00 0.00 0.00 73 1017.5
20260509173507 62 24 0.0 1.7 0.00 0.00 0.00 73 1017.5
20260509172506 61 48 0.9 5.2 0.00 0.00 0.00 75 1019.5
20260509171506 60 24 0.0 4.3 0.00 0.00 0.00 76 1018.5
20260509171006 60 304 0.9 4.3 0.00 0.00 0.00 77 1018.5
20260509170506 60 217 0.0 5.2 0.00 0.00 0.00 77 1018.5
20260509170006 60 98 0.0 5.2 0.00 0.00 0.00 78 1018.5
20260509165007 59 305 0.0 0.0 0.00 0.00 0.00 78 1018.5
20260509164506 58 203 0.0 0.0 0.00 0.00 0.00 80 1018.5
20260509164006 58 305 0.0 0.0 0.00 0.00 0.00 80 1018.5
20260509163006 58 35 0.0 7.0 0.00 0.00 0.00 81 1018.5
20260509162506 58 65 0.0 7.0 0.00 0.00 0.00 82 1018.5
20260509162006 58 106 0.0 4.3 0.00 0.00 0.00 81 1018.5
20260509161506 58 66 0.0 0.0 0.00 0.00 0.00 81 1018.5
20260509161006 57 30 0.0 0.0 0.00 0.00 0.00 82 1018.5
20260509160506 57 212 0.0 0.0 0.00 0.00 0.00 83 1018.5
20260509160007 57 318 0.0 1.7 0.00 0.00 0.00 84 1017.5
20260509155507 57 98 0.0 2.6 0.00 0.00 0.00 83 1017.5
20260509155006 56 36 0.0 2.6 0.00 0.00 0.00 83 1017.5
20260509154006 55 296 0.0 2.6 0.00 0.00 0.00 84 1018.5
20260509153506 55 33 0.0 2.6 0.00 0.00 0.00 84 1018.5
20260509153006 55 78 0.0 2.6 0.00 0.00 0.00 85 1018.5
20260509152507 55 46 0.0 4.3 0.00 0.00 0.00 85 1018.5
20260509151506 54 50 0.0 1.7 0.00 0.00 0.00 85 1018.5
20260509151006 54 35 0.0 1.7 0.00 0.00 0.00 85 1018.5
20260509150006 54 305 0.0 0.0 0.00 0.00 0.00 86 1018.5
20260509145510 53 95 0.0 0.0 0.00 0.00 0.00 87 1018.5
20260509145007 53 76 0.0 0.0 0.00 0.00 0.00 88 1018.5
20260509144506 53 42 0.0 0.0 0.00 0.00 0.00 88 1019.5
20260509144006 53 122 0.0 0.0 0.00 0.00 0.00 88 1019.5
20260509143507 53 305 0.0 0.0 0.00 0.00 0.00 88 1019.5
20260509143007 53 305 0.0 0.0 0.00 0.00 0.00 89 1018.5
20260509142506 52 305 0.0 0.0 0.00 0.00 0.00 89 1018.5
20260509142006 52 305 0.0 0.0 0.00 0.00 0.00 90 1018.5
20260509141506 52 305 0.0 0.0 0.00 0.00 0.00 90 1018.5
20260509141006 51 305 0.0 0.0 0.00 0.00 0.00 90 1018.5
20260509140506 51 305 0.0 0.0 0.00 0.00 0.00 90 1018.5
20260509140006 50 305 0.0 0.0 0.00 0.00 0.00 90 1018.5
20260509135506 50 305 0.0 0.0 0.00 0.00 0.00 90 1018.5
20260509135006 49 305 0.0 0.0 0.00 0.00 0.00 90 1018.5
20260509134506 49 305 0.0 0.0 0.00 0.00 0.00 90 1018.5
20260509134006 49 305 0.0 0.0 0.00 0.00 0.00 90 1018.5
20260509133506 49 305 0.0 0.0 0.00 0.00 0.00 89 1018.5
20260509132507 48 305 0.0 0.0 0.00 0.00 0.00 88 1018.5
20260509132006 48 305 0.0 0.0 0.00 0.00 0.00 89 1018.5
20260509131506 48 305 0.0 0.0 0.00 0.00 0.00 88 1018.5
20260509131007 48 305 0.0 0.0 0.00 0.00 0.00 88 1018.5
20260509130006 48 305 0.0 0.0 0.00 0.00 0.00 88 1018.5
20260509125506 48 305 0.0 0.0 0.00 0.00 0.00 88 1018.5
20260509125006 48 305 0.0 0.0 0.00 0.00 0.00 87 1018.5
20260509123506 48 305 0.0 0.0 0.00 0.00 0.00 86 1019.5
20260509123006 48 305 0.0 0.0 0.00 0.00 0.00 87 1018.5
20260509122506 48 305 0.0 0.0 0.00 0.00 0.00 86 1018.5
20260509122006 48 305 0.0 0.0 0.00 0.00 0.00 86 1018.5
20260509121506 48 305 0.0 0.0 0.00 0.00 0.00 86 1018.5
20260509121006 48 305 0.0 0.0 0.00 0.00 0.00 86 1018.5
20260509120506 49 305 0.0 0.0 0.00 0.00 0.00 86 1018.5
20260509115506 49 305 0.0 0.0 0.00 0.00 0.00 85 1018.5
20260509115006 49 305 0.0 0.0 0.00 0.00 0.00 85 1018.5
20260509114506 49 305 0.0 0.0 0.00 0.00 0.00 85 1019.5
20260509114006 49 305 0.0 0.0 0.00 0.00 0.00 85 1019.5
20260509113506 49 305 0.0 0.0 0.00 0.00 0.00 85 1019.5
20260509113006 49 305 0.0 0.0 0.00 0.00 0.00 85 1019.5
20260509112506 49 305 0.0 0.0 0.00 0.00 0.00 85 1019.5
20260509112006 49 305 0.0 0.0 0.00 0.00 0.00 85 1019.5
20260509111006 49 305 0.0 0.0 0.00 0.00 0.00 84 1019.5
20260509110006 49 305 0.0 0.0 0.00 0.00 0.00 84 1019.5
20260509105506 49 305 0.0 0.0 0.00 0.00 0.00 84 1019.5
20260509105005 49 305 0.0 0.0 0.00 0.00 0.00 84 1019.5
20260509104006 50 305 0.0 0.0 0.00 0.00 0.00 84 1019.5
20260509103505 50 305 0.0 0.0 0.00 0.00 0.00 83 1019.5
20260509103005 50 305 0.0 0.0 0.00 0.00 0.00 83 1019.5
20260509102005 50 305 0.0 0.0 0.00 0.00 0.00 82 1019.5
20260509101005 50 305 0.0 0.0 0.00 0.00 0.00 82 1019.5
20260509100506 50 305 0.0 0.0 0.00 0.00 0.00 81 1019.5
20260509100006 50 305 0.0 0.0 0.00 0.00 0.00 81 1020.5
20260509095505 50 305 0.0 0.0 0.00 0.00 0.00 80 1020.5
20260509095005 50 305 0.0 0.0 0.00 0.00 0.00 80 1020.5
20260509094006 50 305 0.0 0.0 0.00 0.00 0.00 79 1020.5
20260509093506 51 305 0.0 0.0 0.00 0.00 0.00 79 1020.5
20260509093005 51 305 0.0 0.0 0.00 0.00 0.00 79 1020.5
20260509092505 51 305 0.0 0.0 0.00 0.00 0.00 79 1020.5
20260509092006 51 305 0.0 0.0 0.00 0.00 0.00 78 1020.5
20260509091505 51 305 0.0 0.0 0.00 0.00 0.00 78 1020.5
20260509090005 51 305 0.0 0.0 0.00 0.00 0.00 77 1021.5
20260509085505 51 305 0.0 0.0 0.00 0.00 0.00 76 1021.5
20260509085006 52 305 0.0 0.0 0.00 0.00 0.00 77 1021.5
20260509084506 52 58 0.0 0.0 0.00 0.00 0.00 77 1020.5
20260509083505 52 58 0.0 0.0 0.00 0.00 0.00 76 1020.5
20260509083005 52 305 0.0 0.0 0.00 0.00 0.00 75 1020.5
20260509082505 52 305 0.0 0.0 0.00 0.00 0.00 75 1020.5
20260509082005 52 192 0.0 0.0 0.00 0.00 0.00 75 1020.5
20260509081005 52 170 0.0 0.0 0.00 0.00 0.00 75 1020.5
20260509080505 52 125 0.0 0.0 0.00 0.00 0.00 74 1020.5
20260509080006 53 125 0.0 0.0 0.00 0.00 0.00 74 1019.5
20260509075505 53 125 0.0 0.0 0.00 0.00 0.00 73 1019.5
20260509075006 53 35 0.0 0.0 0.00 0.00 0.00 73 1019.5
20260509074505 53 65 0.0 0.0 0.00 0.00 0.00 73 1020.5
20260509074005 53 80 0.0 0.0 0.00 0.00 0.00 72 1020.5
20260509073505 54 80 0.0 0.0 0.00 0.00 0.00 72 1020.5
20260509073005 54 35 0.0 0.0 0.00 0.00 0.00 72 1019.5
20260509072505 54 35 0.0 0.0 0.00 0.00 0.00 71 1019.5
20260509071505 54 238 0.0 0.0 0.00 0.00 0.00 71 1020.5
20260509070505 55 260 0.0 0.0 0.00 0.00 0.00 71 1020.5
20260509070005 55 260 0.0 0.0 0.00 0.00 0.00 70 1020.5
20260509065005 55 102 0.0 0.0 0.00 0.00 0.00 70 1020.5
20260509064006 55 170 0.0 0.0 0.00 0.00 0.00 70 1019.5
20260509063005 55 215 0.0 0.0 0.00 0.00 0.00 69 1020.5
20260509062005 56 35 0.0 0.0 0.00 0.00 0.00 68 1020.5
20260509060506 56 35 0.0 0.0 0.00 0.00 0.00 67 1019.5
20260509060005 56 35 0.0 0.0 0.00 0.00 0.00 66 1020.5
20260509055504 57 35 0.0 0.0 0.00 0.00 0.00 66 1020.5
20260509055005 57 35 0.0 0.0 0.00 0.00 0.00 66 1020.5
20260509054505 57 35 0.0 0.0 0.00 0.00 0.00 65 1020.5
20260509054005 57 35 0.0 0.0 0.00 0.00 0.00 64 1020.5
20260509053506 58 35 0.0 0.0 0.00 0.00 0.00 64 1020.5
20260509053005 58 35 0.0 0.0 0.00 0.00 0.00 63 1020.5
20260509052505 58 35 0.0 0.0 0.00 0.00 0.00 63 1020.5
20260509052005 58 86 0.0 0.0 0.00 0.00 0.00 63 1020.5
20260509051505 58 39 0.0 0.0 0.00 0.00 0.00 63 1020.5
20260509050505 59 55 0.0 0.0 0.00 0.00 0.00 61 1020.5
20260509050004 59 55 0.0 0.0 0.00 0.00 0.00 61 1020.5
20260509045005 60 58 0.0 0.0 0.00 0.00 0.00 60 1020.5
20260509044505 60 305 0.0 0.0 0.00 0.00 0.00 60 1020.5
20260509044005 60 305 0.0 0.0 0.00 0.00 0.00 60 1020.5
20260509043505 60 305 0.0 0.0 0.00 0.00 0.00 59 1020.5
20260509043005 60 305 0.0 0.0 0.00 0.00 0.00 59 1020.5
20260509042504 60 305 0.0 0.0 0.00 0.00 0.00 59 1020.5
20260509042005 60 305 0.0 0.0 0.00 0.00 0.00 58 1020.5
20260509041004 60 305 0.0 0.0 0.00 0.00 0.00 58 1020.5
20260509040505 61 305 0.0 0.0 0.00 0.00 0.00 58 1020.5
20260509040005 61 305 0.0 0.0 0.00 0.00 0.00 58 1020.5
20260509035504 61 305 0.0 0.0 0.00 0.00 0.00 57 1020.5
20260509035005 61 305 0.0 0.0 0.00 0.00 0.00 57 1020.5
20260509034004 61 305 0.0 0.0 0.00 0.00 0.00 56 1019.5
20260509033004 61 305 0.0 0.0 0.00 0.00 0.00 56 1019.5
20260509031005 62 305 0.0 0.0 0.00 0.00 0.00 54 1019.5
20260509030505 62 305 0.0 0.0 0.00 0.00 0.00 54 1019.5
20260509025505 62 305 0.0 0.0 0.00 0.00 0.00 53 1019.5
20260509025004 62 305 0.0 0.0 0.00 0.00 0.00 53 1019.5
20260509024504 63 305 0.0 0.0 0.00 0.00 0.00 52 1019.5
20260509024005 63 305 0.0 0.0 0.00 0.00 0.00 52 1019.5
20260509023504 63 305 0.0 0.0 0.00 0.00 0.00 52 1019.5
20260509023004 63 305 0.0 0.0 0.00 0.00 0.00 52 1019.5
20260509022504 63 305 0.0 0.0 0.00 0.00 0.00 52 1019.5
20260509022004 64 305 0.0 0.0 0.00 0.00 0.00 52 1019.5
20260509021504 64 305 0.0 0.0 0.00 0.00 0.00 51 1019.5
20260509020504 64 305 0.0 0.0 0.00 0.00 0.00 51 1019.5
20260509020006 64 305 0.0 0.0 0.00 0.00 0.00 51 1019.5
20260509015504 64 305 0.0 0.0 0.00 0.00 0.00 50 1019.5
20260509015004 64 282 0.0 0.0 0.00 0.00 0.00 50 1019.5
20260509014004 65 246 0.0 0.0 0.00 0.00 0.00 50 1019.5
20260509013005 65 267 0.0 0.0 0.00 0.00 0.00 50 1020.5
20260509011505 65 291 0.0 0.0 0.00 0.00 0.00 50 1019.5
20260509011005 65 305 0.0 0.0 0.00 0.00 0.00 50 1019.5
20260509005504 65 191 0.0 2.6 0.00 0.00 0.00 50 1019.5
20260509004504 65 238 0.0 4.3 0.00 0.00 0.00 50 1019.5
20260509004005 65 245 0.0 4.3 0.00 0.00 0.00 50 1019.5
20260509003505 66 68 0.0 0.0 0.00 0.00 0.00 50 1019.5
20260509003005 65 305 0.0 0.0 0.00 0.00 0.00 50 1020.5
20260509002504 65 214 0.0 0.0 0.00 0.00 0.00 49 1020.5
20260509002004 65 238 0.0 0.0 0.00 0.00 0.00 50 1020.5
20260509001504 65 305 0.0 1.7 0.00 0.00 0.00 50 1020.5
20260509001005 65 40 0.0 7.0 0.00 0.00 0.00 50 1020.5
20260509000504 65 215 0.0 7.0 0.00 0.00 0.00 50 1020.5
20260509000004 65 141 0.9 7.0 0.00 0.00 0.00 50 1020.5
20260508235504 66 75 0.0 2.6 0.00 0.00 0.00 50 1020.5
20260508235004 66 234 0.0 1.7 0.00 0.00 0.00 50 1020.5
20260508234504 66 279 0.0 2.6 0.00 0.00 0.00 50 1019.5
20260508234004 66 88 0.0 4.3 0.00 0.00 0.00 50 1019.5
20260508233505 66 31 0.9 4.3 0.00 0.00 0.00 50 1019.5
20260508233004 66 215 0.0 4.3 0.00 0.00 0.00 50 1019.5
20260508232505 66 133 0.9 4.3 0.00 0.00 0.00 50 1019.5
20260508232004 66 259 0.0 1.7 0.00 0.00 0.00 50 1019.5
20260508231004 66 248 0.0 6.1 0.00 0.00 0.00 50 1019.5
20260508230505 66 215 0.9 7.0 0.00 0.00 0.00 50 1019.5
20260508230005 66 145 3.5 7.0 0.00 0.00 0.00 51 1019.5
20260508225503 65 50 0.0 4.3 0.00 0.00 0.00 50 1019.5
20260508225004 66 58 0.0 7.0 0.00 0.00 0.00 51 1019.5
20260508224504 66 130 2.6 7.0 0.00 0.00 0.00 51 1020.5
20260508224004 66 113 0.0 1.7 0.00 0.00 0.00 51 1020.5
20260508223505 66 288 0.0 4.3 0.00 0.00 0.00 51 1020.5
20260508223004 65 156 0.9 4.3 0.00 0.00 0.00 52 1020.5
20260508222504 64 207 0.9 4.3 0.00 0.00 0.00 51 1020.5
20260508222004 65 114 0.0 7.8 0.00 0.00 0.00 51 1020.5
20260508221504 64 232 0.9 7.8 0.00 0.00 0.00 51 1020.5
20260508221005 65 183 0.0 4.3 0.00 0.00 0.00 51 1020.5
20260508220505 64 231 0.0 7.0 0.00 0.00 0.00 51 1020.5
20260508220004 64 149 2.6 7.0 0.00 0.00 0.00 52 1019.5
20260508215504 64 115 0.0 7.0 0.00 0.00 0.00 52 1019.5
20260508214503 64 161 0.0 6.1 0.00 0.00 0.00 52 1020.5
20260508214004 63 203 0.9 7.0 0.00 0.00 0.00 51 1020.5